This demonstration page uses our WeatherBlox Daily Observations layout. Learn more.

Left ArrowRight Arrow

41.12389, -100.76542

Hourly Observations for July 19, 2022

Temp ( °F °C ) Dew Point ( °F °C ) Humidity (%) Winds ( mph kmh ) Pressure ( in mb ) Visibility ( mi km ) Precip ( " mm )
12:53 am 00:53 Clear 88 31.1 55 12.8 33 33 SSW 10 17 29.69 1005 10 16 0.00 0.00
1:53 am 01:53 Clear 86 30 56 13.3 36 36 WSW 9 15 29.68 1005 10 16 0.00 0.00
2:53 am 02:53 Mostly Cloudy with Light Rain 94 34.4 50 10 22 22 S 28 44 29.63 1003 10 16 0.00 0.00
3:00 am 03:00 Partly Cloudy 90 32.2 52 11.1 27 27 S 18 30 29.54 1000 10 16 0.00 0.00
3:53 am 03:53 Clear 88 31.1 52 11.1 29 29 SSW 12 19 29.64 1004 10 16 0.00 0.00
4:53 am 04:53 Clear 86 30 52 11.1 31 31 SW 10 17 29.65 1004 10 16 0.00 0.00
5:53 am 05:53 Clear 77 25 54 12.2 45 45 NW 7 11 29.69 1005 10 16 0.00 0.00
6:53 am 06:53 Sunny 72 22.2 56 13.3 57 57 WNW 8 13 29.72 1006 10 16 0.00 0.00
7:53 am 07:53 Sunny 79 26.1 59 15 50 50 WNW 7 11 29.73 1007 10 16 0.00 0.00
8:53 am 08:53 Sunny 84 28.9 49 9.4 30 30 N 20 31 29.76 1008 10 16 0.00 0.00
9:53 am 09:53 Sunny 85 29.4 46 7.8 26 26 N 18 30 29.77 1008 10 16 0.00 0.00
10:53 am 10:53 Sunny 87 30.6 44 6.7 22 22 N 15 24 29.78 1009 10 16 0.00 0.00
11:53 am 11:53 Sunny 90 32.2 44 6.7 20 20 N 12 19 29.80 1009 10 16 0.00 0.00
12:53 pm 12:53 Sunny 92 33.3 44 6.7 19 19 NNE 9 15 29.80 1009 10 16 0.00 0.00
1:53 pm 13:53 Sunny 96 35.6 42 5.6 15 15 NW 8 13 29.79 1009 10 16 0.00 0.00
2:53 pm 14:53 Sunny 96 35.6 43 6.1 16 16 NW 10 17 29.77 1008 10 16 0.00 0.00
3:53 pm 15:53 Sunny 98 36.7 42 5.6 15 15 W 10 17 29.76 1008 10 16 0.00 0.00
4:53 pm 16:53 Sunny 97 36.1 44 6.7 16 16 WSW 6 9 29.75 1007 10 16 0.00 0.00
5:38 pm 17:38 Sunny 100 37.8 36 2.2 11 11 NW 18 30 29.59 1002 10 16 0.00 0.00
5:53 pm 17:53 Sunny 100 37.8 36 2.2 11 11 WNW 16 26 29.74 1007 10 16 0.00 0.00
6:53 pm 18:53 Sunny 96 35.6 36 2.2 12 12 NW 14 22 29.75 1008 10 16 0.00 0.00
7:53 pm 19:53 Sunny 92 33.3 41 5 17 17 NW 8 13 29.76 1008 10 16 0.00 0.00
8:53 pm 20:53 Sunny 83 28.3 49 9.4 31 31 W 5 7 29.78 1008 10 16 0.00 0.00
9:53 pm 21:53 Clear 77 25 50 10 39 39 W 5 7 29.82 1010 10 16 0.00 0.00
10:53 pm 22:53 Clear 67 19.4 48 8.9 51 51 NW 8 13 29.86 1011 10 16 0.00 0.00
11:53 pm 23:53 Clear 73 22.8 45 7.2 37 37 NNE 5 7 29.87 1012 10 16 0.00 0.00

Powered by AerisWeather